Theta_e
353 349 346 345 347 346 344 349 352 353 349 344 338 337 337 347 351 351 350 350 348 346 345 344 343 343 340 337 336 346 348 349 351 350 349 348 347 351 351 350 349 350 349
351 349 346 344 345 341 342 345 348 349 347 342 341 336 338 341 347 349 347 341 343 342 339 338 338 335 337 338 339 342 345 346 347 347 348 349 349 352 352 351 350 347 347
343 342 340 340 340 340 340 343 343 344 340 341 342 335 338 343 345 347 343 338 336 335 334 333 332 332 333 334 337 337 336 337 341 345 345 345 347 349 350 351 351 349 349
343 343 341 338 338 341 343 345 345 343 337 334 337 338 341 343 343 339 339 338 337 335 334 335 336 335 335 334 332 333 336 338 337 339 342 340 340 343 349 351 351 349 349
343 345 346 345 342 344 344 342 342 340 339 340 341 339 340 339 337 340 341 340 338 338 338 337 336 334 333 332 331 330 332 335 335 335 335 337 336 336 341 345 351 351 351
343 343 344 344 343 342 341 340 338 338 341 342 341 341 341 340 339 338 335 335 336 336 336 336 335 334 334 332 330 329 332 335 338 338 336 334 337 337 336 337 341 349 353
341 341 341 340 339 337 336 336 335 335 334 335 337 337 338 338 336 334 329 328 331 333 333 333 334 332 331 330 329 330 332 333 334 336 338 338 338 337 338 340 341 342 345
338 336 334 334 332 331 330 329 328 327 327 326 327 327 327 328 325 323 319 320 323 326 327 328 328 327 327 327 328 328 330 333 333 335 338 337 337 337 338 338 339 341 344
330 328 326 326 324 323 322 320 319 318 318 318 318 318 319 319 317 315 315 317 317 320 323 324 325 326 326 326 327 328 329 330 332 333 332 333 336 338 338 337 335 338 340
325 322 321 320 318 317 317 316 316 316 315 316 316 316 316 316 316 315 313 314 313 313 314 318 320 321 322 323 325 326 327 329 331 333 334 335 335 338 336 336 335 335 334
320 318 317 316 315 315 315 315 314 314 314 314 315 315 315 315 315 313 311 312 312 312 312 313 314 314 320 319 318 317 321 323 328 330 333 334 335 337 338 338 337 336 335
317 316 315 314 313 313 314 314 313 313 312 312 312 312 312 313 313 312 310 309 308 310 312 313 313 312 311 313 313 314 315 315 323 329 331 332 333 334 334 334 337 337 338
316 315 314 313 312 312 312 312 311 310 310 310 309 309 310 310 310 309 308 308 308 308 308 308 308 309 309 311 312 314 314 318 319 328 328 331 332 333 334 334 336 337 338
315 315 314 314 313 312 312 311 310 310 309 309 308 308 308 309 309 309 308 307 306 307 307 307 304 303 304 307 309 312 314 314 320 324 327 329 330 331 333 333 333 334 335
313 313 313 312 312 313 312 311 310 309 308 307 307 307 307 307 307 305 304 303 304 304 302 303 304 306 307 309 311 312 314 316 322 323 323 326 326 329 331 330 330 331 333
313 313 312 311 311 312 312 311 310 309 308 307 306 306 307 306 305 304 304 304 304 303 302 303 305 305 306 306 308 310 310 313 315 320 323 322 323 324 327 329 329 330 330
313 313 312 312 312 312 311 310 310 309 309 308 308 308 306 306 305 304 304 304 304 303 302 303 305 306 306 306 306 308 310 309 312 314 318 323 322 322 324 325 327 327 328
314 313 312 312 311 311 310 310 310 310 309 309 309 309 308 306 305 305 305 304 304 304 303 303 304 304 305 305 306 307 307 308 308 310 313 316 321 322 321 323 325 326 327
313 312 310 310 309 309 309 309 309 309 309 309 309 307 307 305 305 305 304 304 303 303 302 301 302 302 302 304 305 305 305 306 306 309 311 313 316 321 323 324 324 325 326
311 310 309 309 309 309 309 309 308 309 309 307 306 306 305 305 304 304 304 304 304 303 302 301 301 300 300 302 303 304 304 304 304 308 311 312 315 319 321 322 323 325 326
312 311 309 309 309 309 308 308 308 308 306 305 305 304 304 303 303 302 302 302 302 302 302 301 300 300 300 300 301 302 302 304 305 306 308 311 317 320 320 321 323 324 325
311 310 309 308 307 307 308 308 306 305 305 304 304 304 303 302 302 302 301 301 301 300 300 300 300 299 299 299 300 302 303 304 305 307 309 311 314 316 319 321 324 324 325
309 309 307 307 309 308 306 305 304 304 304 303 303 303 303 302 302 302 301 301 301 300 300 299 299 299 299 299 300 301 303 303 307 306 308 309 313 313 314 317 324 326 326
308 307 307 309 308 306 305 305 304 303 303 303 303 303 303 302 302 302 302 302 302 301 300 300 299 299 299 299 299 301 302 304 304 307 308 309 310 311 312 314 317 326 327
307 307 308 308 307 306 305 304 304 305 305 304 303 302 303 303 303 303 303 303 302 302 302 301 300 300 299 299 299 300 302 303 304 305 305 306 306 307 309 311 314 322 325
307 307 309 308 307 306 306 306 307 306 306 305 303 303 302 303 303 303 303 302 302 302 302 302 302 301 300 299 299 299 299 300 301 303 303 303 305 306 307 310 314 318 324
Wind_Speed
3 5 4 7 7 8 3 7 11 10 11 9 14 7 9 8 8 7 6 5 6 8 10 11 10 11 14 16 15 11 14 15 12 21 19 21 20 17 15 14 14 14 18
1 1 3 5 8 8 9 10 5 1 4 7 10 13 5 11 15 10 9 8 9 10 11 11 12 13 13 15 17 15 14 15 15 15 19 20 20 18 16 14 13 16 16
3 5 4 3 6 3 7 8 11 13 10 4 10 8 9 23 21 13 11 11 10 9 11 12 13 13 14 17 19 22 22 20 18 16 19 18 17 19 19 17 17 15 18
6 5 6 9 7 10 2 3 4 8 14 13 11 13 10 22 16 13 11 11 11 12 13 14 14 14 15 16 19 22 24 23 23 22 21 23 19 17 16 18 20 18 19
1 5 7 5 3 2 4 5 7 9 5 8 9 7 10 11 12 14 11 12 14 17 18 17 18 19 20 22 22 24 25 26 25 23 23 20 19 19 16 15 18 21 21
2 2 3 4 2 3 5 8 8 8 8 5 1 2 8 11 13 12 12 13 17 20 22 22 22 22 25 25 24 26 26 27 28 26 25 23 16 18 21 22 17 17 14
5 4 4 5 4 5 7 9 9 8 6 5 3 3 6 9 13 16 17 17 20 22 23 25 26 27 27 27 29 27 27 29 30 30 30 28 25 21 19 19 20 21 22
6 6 4 4 5 7 8 8 8 8 7 7 6 7 10 13 16 20 21 20 22 24 24 26 26 27 27 25 26 26 26 26 27 27 29 32 32 28 25 22 22 23 21
4 5 5 5 5 6 8 9 10 11 10 9 10 11 12 14 16 19 19 19 20 21 22 21 22 25 25 26 25 27 27 29 27 28 33 35 33 27 24 22 25 19 20
4 4 5 6 7 8 9 9 9 10 11 13 13 14 15 17 17 17 17 18 21 21 22 20 19 22 24 24 21 21 22 25 24 28 28 29 33 33 36 35 31 27 25
3 4 7 8 9 10 10 10 12 13 14 14 16 17 17 15 17 18 19 18 21 24 24 23 23 22 23 23 23 19 22 24 28 29 30 29 28 29 28 27 30 32 29
5 5 5 5 6 6 8 10 11 12 12 14 16 18 18 18 18 18 20 23 23 23 24 25 24 18 19 27 31 31 34 32 26 27 28 28 28 28 27 27 26 28 29
3 2 2 3 5 7 10 11 12 12 14 16 18 20 21 21 21 21 22 21 22 25 27 28 33 33 29 28 28 26 25 27 24 25 28 29 29 28 23 25 20 20 23
2 2 4 6 7 8 11 12 13 14 15 16 20 21 24 25 25 23 22 26 29 28 27 28 31 38 34 33 36 33 28 31 29 26 27 23 21 26 20 23 23 22 22
5 7 8 9 10 12 12 14 15 15 16 20 21 22 24 25 26 29 31 29 29 32 36 34 31 26 25 24 25 26 26 24 26 25 26 24 23 22 23 19 20 22 20
8 8 8 12 13 15 16 18 18 20 21 23 26 24 27 30 33 33 35 35 34 34 32 31 29 25 24 25 25 25 23 26 25 26 24 24 21 25 19 21 20 16 21
8 10 12 13 15 16 17 18 21 23 23 23 24 27 24 28 33 33 33 34 35 34 27 27 27 26 25 23 24 26 24 24 24 22 23 22 23 21 19 23 19 20 19
10 13 13 14 16 17 18 20 22 23 25 26 25 28 30 30 33 34 36 37 30 23 22 25 26 25 25 25 24 23 23 21 23 24 22 24 23 20 21 23 24 23 20
11 13 14 16 17 17 20 20 22 24 25 27 29 31 31 35 35 36 32 28 25 25 24 23 25 27 26 23 22 22 22 21 23 24 26 25 24 25 24 23 24 27 18
12 11 12 15 18 19 20 22 23 24 25 24 27 28 31 32 32 31 29 26 25 26 26 25 26 26 27 24 25 24 22 24 27 26 29 31 26 25 22 22 24 25 21
14 14 12 15 17 19 21 21 24 22 22 24 26 29 32 31 30 28 28 26 26 27 27 27 27 26 26 25 23 23 25 23 21 22 20 18 20 22 23 26 26 26 24
14 13 15 16 18 19 19 22 20 21 22 24 26 28 31 29 26 27 28 28 28 27 27 27 29 28 27 26 25 24 22 23 22 21 23 20 20 22 25 24 26 25 25
11 13 15 15 15 16 18 17 18 20 23 24 26 26 27 27 28 29 30 31 30 30 29 27 28 28 27 27 26 26 25 25 18 20 21 21 11 12 14 16 20 25 23
12 13 14 13 15 15 14 16 19 22 24 24 25 26 28 29 31 32 33 33 33 33 32 30 29 29 29 27 26 24 25 23 23 22 22 18 14 14 15 16 18 23 23
13 12 11 14 13 12 13 17 19 21 23 24 26 28 32 32 33 34 35 35 34 33 33 32 30 30 31 27 29 26 24 21 21 20 21 23 23 20 19 19 20 17 16
11 10 10 12 10 10 11 16 19 21 24 25 27 30 33 34 35 35 36 36 36 36 36 36 33 31 31 27 26 26 26 25 24 24 22 22 18 19 18 18 17 16 15
Wind_Direction
170 173 189 213 182 177 235 259 231 212 210 212 183 298 351 320 269 249 259 268 261 277 285 282 281 290 290 290 286 279 271 269 262 278 282 276 265 264 264 264 260 264 262
164 169 188 246 288 294 252 272 260 105 99 204 250 315 6 265 265 251 255 274 265 274 280 283 284 290 292 285 279 269 267 270 257 264 275 284 283 275 263 258 252 256 265
97 116 102 65 11 323 300 240 230 231 257 114 110 119 192 254 254 250 257 260 261 266 274 278 284 290 290 291 291 288 284 276 263 265 280 277 275 279 279 260 256 248 250
90 67 19 33 37 59 26 244 174 148 155 141 133 134 206 236 244 250 246 253 256 265 268 273 279 284 286 288 289 285 277 272 271 266 268 276 269 271 273 275 267 244 246
32 24 12 9 60 44 31 38 44 60 108 134 169 172 224 242 253 244 247 256 270 273 273 273 278 284 284 284 284 281 282 278 269 267 268 264 267 261 248 268 273 280 267
186 353 62 57 77 45 52 65 68 63 49 48 32 240 246 251 261 262 264 278 275 272 276 280 280 283 285 287 286 282 273 267 268 272 274 272 274 273 275 270 264 269 274
141 137 103 74 51 32 31 32 33 48 43 35 341 285 274 276 280 276 279 279 276 276 275 277 278 282 288 287 283 281 273 270 263 259 263 267 275 270 274 277 270 262 260
121 104 69 55 35 23 21 21 15 3 355 343 321 305 294 287 281 284 290 290 282 279 278 278 280 284 282 281 281 279 277 274 267 262 253 254 254 259 263 261 263 273 271
108 73 56 46 41 21 15 6 357 349 341 329 319 309 303 297 298 305 310 303 295 289 284 282 285 284 281 283 283 279 279 276 275 268 264 265 259 256 251 263 268 254 257
67 52 37 38 34 27 15 4 351 343 334 327 322 316 309 304 304 303 304 298 294 292 290 284 281 280 283 275 277 287 289 279 281 279 272 260 257 256 249 243 249 250 252
76 50 33 24 18 16 9 2 355 346 339 335 330 328 321 319 313 312 315 313 309 310 300 292 290 287 285 293 294 292 285 297 290 279 272 265 262 250 243 232 233 241 251
75 66 49 33 21 2 354 346 343 330 327 330 329 326 328 324 317 316 319 317 311 302 294 288 284 295 293 288 286 283 282 289 283 270 266 260 256 253 250 249 241 235 244
94 60 9 350 338 333 332 327 319 324 329 328 331 325 323 323 318 315 314 314 311 304 296 292 299 299 298 290 279 284 282 270 268 269 262 262 261 263 263 264 259 251 249
213 261 285 297 309 302 310 309 311 316 318 321 324 320 322 319 315 317 318 315 308 305 306 307 299 294 285 280 276 275 268 258 253 255 260 271 272 256 245 241 244 245 250
298 300 299 296 300 306 301 310 306 303 305 304 308 313 314 317 311 310 304 299 304 302 305 298 294 291 288 283 281 279 283 273 259 247 256 260 264 264 258 261 251 266 252
297 288 303 307 303 307 308 307 306 303 305 302 302 298 305 309 310 305 307 308 305 303 300 294 290 285 280 278 277 276 272 277 269 269 249 242 252 252 265 257 255 245 270
289 297 300 299 305 306 305 305 307 310 308 304 303 301 300 312 310 305 305 304 300 298 288 287 288 288 283 275 275 270 270 270 282 264 277 254 230 250 249 263 262 251 257
293 287 286 293 300 304 305 310 307 306 311 311 309 319 311 317 311 305 304 301 293 290 281 286 288 288 285 283 275 268 269 270 274 275 271 270 250 233 233 245 251 256 249
299 305 312 305 302 307 301 303 307 311 309 310 322 318 318 315 306 303 302 289 278 281 283 279 284 285 283 278 270 261 262 271 279 279 268 255 265 250 244 247 246 246 251
311 316 309 305 310 309 313 317 314 312 320 325 318 311 312 313 310 308 303 294 283 280 279 277 278 276 276 273 272 263 264 271 270 264 259 255 241 251 249 246 249 254 242
316 317 318 307 318 320 316 320 319 335 332 318 310 308 306 307 302 301 302 301 296 289 281 275 275 272 272 272 269 267 266 260 271 276 283 287 263 255 261 250 245 247 253
313 319 321 322 321 321 329 325 335 326 316 310 305 305 308 306 301 298 298 296 294 290 287 281 276 273 270 269 266 266 264 265 264 265 265 265 268 268 261 262 247 244 246
322 326 324 327 328 337 333 327 326 318 311 309 309 310 311 308 306 304 301 299 296 293 289 283 278 275 270 269 265 260 258 262 256 270 275 288 273 299 302 303 262 257 245
335 331 333 332 346 335 335 331 319 311 310 308 311 312 311 309 307 305 304 303 300 295 290 283 278 276 274 267 261 261 259 256 262 260 264 269 278 287 288 292 289 263 251
335 336 331 340 343 338 327 310 315 323 324 321 317 315 312 311 309 308 305 304 300 298 294 287 279 276 275 270 260 256 252 253 253 249 258 263 275 277 271 274 280 275 277
338 333 330 339 342 328 323 325 324 326 327 323 317 319 316 314 310 308 307 304 301 297 293 290 284 275 273 268 263 256 249 248 248 250 247 256 257 256 261 263 270 271 275